Wetterdaten: Montag, 06.06.2011
Datum Zeit Temp. A. Feuchte A. Luftdruck Regen Wind Richtung Richtung Sonnenschein UV Solar Windben
06.06.2011 00:00 17,6 C 92 % 1003,0 hPa 0,0 mm 0,0 km/h (0 Bft) O-SO 112 0 min 0 UV-I 0 W/m 1,6 km/h (1 Bft)
06.06.2011 00:10 17,6 C 92 % 1003,1 hPa 0,0 mm 0,0 km/h (0 Bft) N 0 0 min 0 UV-I 0 W/m 0,0 km/h (0 Bft)
06.06.2011 00:20 17,6 C 92 % 1003,2 hPa 0,0 mm 0,0 km/h (0 Bft) O-SO 112 0 min 0 UV-I 0 W/m 4,8 km/h (1 Bft)
06.06.2011 00:30 17,6 C 92 % 1003,3 hPa 0,0 mm 0,0 km/h (0 Bft) O-SO 112 0 min 0 UV-I 0 W/m 1,6 km/h (1 Bft)
06.06.2011 00:40 17,6 C 92 % 1003,2 hPa 0,0 mm 0,0 km/h (0 Bft) O-SO 112 0 min 0 UV-I 0 W/m 1,6 km/h (1 Bft)
06.06.2011 00:50 17,4 C 92 % 1003,0 hPa 0,0 mm 0,0 km/h (0 Bft) N 0 0 min 0 UV-I 0 W/m 0,0 km/h (0 Bft)
06.06.2011 01:00 17,3 C 92 % 1003,0 hPa 0,0 mm 0,0 km/h (0 Bft) O-SO 112 0 min 0 UV-I 0 W/m 1,6 km/h (1 Bft)
06.06.2011 01:10 17,1 C 92 % 1002,9 hPa 0,0 mm 0,0 km/h (0 Bft) N 0 0 min 0 UV-I 0 W/m 0,0 km/h (0 Bft)
06.06.2011 01:20 17,1 C 92 % 1002,9 hPa 0,0 mm 0,0 km/h (0 Bft) N 0 0 min 0 UV-I 0 W/m 0,0 km/h (0 Bft)
06.06.2011 01:30 17,1 C 92 % 1002,9 hPa 0,0 mm 0,0 km/h (0 Bft) O-SO 112 0 min 0 UV-I 0 W/m 1,6 km/h (1 Bft)
06.06.2011 01:40 17,1 C 92 % 1003,0 hPa 0,0 mm 0,0 km/h (0 Bft) O-SO 112 0 min 0 UV-I 0 W/m 1,6 km/h (1 Bft)
06.06.2011 01:50 17,2 C 92 % 1003,1 hPa 0,0 mm 0,0 km/h (0 Bft) O-SO 112 0 min 0 UV-I 0 W/m 1,6 km/h (1 Bft)
06.06.2011 02:00 17,2 C 92 % 1003,0 hPa 0,0 mm 0,0 km/h (0 Bft) O-SO 112 0 min 0 UV-I 0 W/m 1,6 km/h (1 Bft)
06.06.2011 02:10 17,1 C 92 % 1003,0 hPa 0,0 mm 0,0 km/h (0 Bft) N 0 0 min 0 UV-I 0 W/m 0,0 km/h (0 Bft)
06.06.2011 02:20 17,1 C 92 % 1002,9 hPa 0,0 mm 0,0 km/h (0 Bft) O-SO 112 0 min 0 UV-I 0 W/m 1,6 km/h (1 Bft)
06.06.2011 02:30 16,9 C 92 % 1002,8 hPa 0,0 mm 0,0 km/h (0 Bft) O-SO 112 0 min 0 UV-I 0 W/m 4,8 km/h (1 Bft)
06.06.2011 02:40 16,8 C 92 % 1002,9 hPa 0,3 mm 0,0 km/h (0 Bft) O-SO 112 0 min 0 UV-I 0 W/m 1,6 km/h (1 Bft)
06.06.2011 02:50 16,8 C 92 % 1002,9 hPa 0,0 mm 0,0 km/h (0 Bft) O-SO 112 0 min 0 UV-I 0 W/m 1,6 km/h (1 Bft)
06.06.2011 03:00 16,9 C 92 % 1002,7 hPa 0,0 mm 0,0 km/h (0 Bft) N 0 0 min 0 UV-I 0 W/m 0,0 km/h (0 Bft)
06.06.2011 03:10 16,8 C 92 % 1002,7 hPa 0,0 mm 0,0 km/h (0 Bft) O-SO 112 0 min 0 UV-I 0 W/m 1,6 km/h (1 Bft)
06.06.2011 03:20 16,8 C 92 % 1002,6 hPa 0,0 mm 0,0 km/h (0 Bft) O-SO 112 0 min 0 UV-I 0 W/m 1,6 km/h (1 Bft)
06.06.2011 03:30 16,8 C 93 % 1002,5 hPa 0,0 mm 0,0 km/h (0 Bft) O-SO 112 0 min 0 UV-I 0 W/m 1,6 km/h (1 Bft)
06.06.2011 03:40 16,8 C 93 % 1002,4 hPa 0,0 mm 0,0 km/h (0 Bft) N 0 0 min 0 UV-I 0 W/m 0,0 km/h (0 Bft)
06.06.2011 03:50 16,8 C 92 % 1002,5 hPa 0,0 mm 0,0 km/h (0 Bft) N 0 0 min 0 UV-I 0 W/m 0,0 km/h (0 Bft)
06.06.2011 04:00 16,7 C 93 % 1002,5 hPa 0,0 mm 0,0 km/h (0 Bft) N 0 0 min 0 UV-I 0 W/m 0,0 km/h (0 Bft)
06.06.2011 04:10 16,7 C 93 % 1002,6 hPa 0,0 mm 0,0 km/h (0 Bft) N 0 0 min 0 UV-I 0 W/m 0,0 km/h (0 Bft)
06.06.2011 04:20 16,8 C 93 % 1002,4 hPa 0,0 mm 0,0 km/h (0 Bft) N 0 0 min 0 UV-I 0 W/m 0,0 km/h (0 Bft)
06.06.2011 04:30 16,8 C 93 % 1002,3 hPa 0,0 mm 0,0 km/h (0 Bft) O-SO 112 0 min 0 UV-I 0 W/m 3,2 km/h (1 Bft)
06.06.2011 04:40 16,7 C 93 % 1002,2 hPa 0,0 mm 0,0 km/h (0 Bft) O-SO 112 0 min 0 UV-I 0 W/m 1,6 km/h (1 Bft)
06.06.2011 04:50 16,7 C 93 % 1002,1 hPa 0,0 mm 0,0 km/h (0 Bft) O-SO 112 0 min 0 UV-I 0 W/m 3,2 km/h (1 Bft)
06.06.2011 05:00 16,6 C 92 % 1001,9 hPa 0,0 mm 0,0 km/h (0 Bft) N 0 0 min 0 UV-I 0 W/m 0,0 km/h (0 Bft)
06.06.2011 05:10 16,4 C 93 % 1001,9 hPa 0,0 mm 0,0 km/h (0 Bft) N 0 0 min 0 UV-I 0 W/m 0,0 km/h (0 Bft)
06.06.2011 05:20 16,2 C 93 % 1001,9 hPa 0,0 mm 0,0 km/h (0 Bft) O-SO 112 0 min 0 UV-I 0 W/m 3,2 km/h (1 Bft)
06.06.2011 05:30 16,1 C 93 % 1001,9 hPa 0,0 mm 0,0 km/h (0 Bft) O-SO 112 0 min 0 UV-I 9 W/m 1,6 km/h (1 Bft)
06.06.2011 05:40 16,1 C 93 % 1001,9 hPa 0,0 mm 0,0 km/h (0 Bft) O-SO 112 0 min 0 UV-I 19 W/m 1,6 km/h (1 Bft)
06.06.2011 05:50 16,2 C 93 % 1001,9 hPa 0,0 mm 0,0 km/h (0 Bft) N 0 0 min 0 UV-I 21 W/m 0,0 km/h (0 Bft)
06.06.2011 06:00 16,2 C 93 % 1002,0 hPa 0,0 mm 0,0 km/h (0 Bft) N 0 0 min 0 UV-I 25 W/m 0,0 km/h (0 Bft)
06.06.2011 06:10 16,2 C 93 % 1002,0 hPa 0,0 mm 0,0 km/h (0 Bft) O-SO 112 0 min 0 UV-I 30 W/m 1,6 km/h (1 Bft)
06.06.2011 06:20 16,3 C 93 % 1002,2 hPa 0,0 mm 0,0 km/h (0 Bft) O-SO 112 0 min 0 UV-I 62 W/m 3,2 km/h (1 Bft)
06.06.2011 06:30 16,5 C 93 % 1002,2 hPa 0,0 mm 0,0 km/h (0 Bft) O-SO 112 0 min 0 UV-I 77 W/m 1,6 km/h (1 Bft)
06.06.2011 06:40 16,7 C 93 % 1002,3 hPa 0,0 mm 0,0 km/h (0 Bft) O-SO 112 0 min 0 UV-I 72 W/m 1,6 km/h (1 Bft)
06.06.2011 06:50 16,7 C 93 % 1002,3 hPa 0,0 mm 0,0 km/h (0 Bft) O-SO 112 0 min 1 UV-I 93 W/m 1,6 km/h (1 Bft)
06.06.2011 07:00 16,9 C 93 % 1002,5 hPa 0,0 mm 0,0 km/h (0 Bft) O-SO 112 0 min 1 UV-I 130 W/m 1,6 km/h (1 Bft)
06.06.2011 07:10 17,1 C 92 % 1002,6 hPa 0,0 mm 0,0 km/h (0 Bft) O-SO 112 0 min 1 UV-I 130 W/m 1,6 km/h (1 Bft)
06.06.2011 07:20 17,4 C 92 % 1002,6 hPa 0,0 mm 0,0 km/h (0 Bft) O-SO 112 10 min 1 UV-I 169 W/m 3,2 km/h (1 Bft)
06.06.2011 07:30 17,8 C 91 % 1002,5 hPa 0,0 mm 0,0 km/h (0 Bft) O-SO 112 10 min 1 UV-I 185 W/m 1,6 km/h (1 Bft)
06.06.2011 07:40 18,1 C 91 % 1002,3 hPa 0,0 mm 0,0 km/h (0 Bft) O-SO 112 10 min 1 UV-I 204 W/m 4,8 km/h (1 Bft)
06.06.2011 07:50 18,5 C 89 % 1002,4 hPa 0,0 mm 0,0 km/h (0 Bft) O-SO 112 10 min 1 UV-I 304 W/m 3,2 km/h (1 Bft)
06.06.2011 08:00 18,9 C 86 % 1002,5 hPa 0,0 mm 0,0 km/h (0 Bft) O-SO 112 10 min 1 UV-I 308 W/m 1,6 km/h (1 Bft)
06.06.2011 08:10 19,4 C 84 % 1002,5 hPa 0,0 mm 0,0 km/h (0 Bft) O-SO 112 10 min 1 UV-I 301 W/m 4,8 km/h (1 Bft)
06.06.2011 08:20 19,7 C 83 % 1002,4 hPa 0,0 mm 0,0 km/h (0 Bft) O-SO 112 10 min 2 UV-I 339 W/m 6,4 km/h (2 Bft)
06.06.2011 08:30 20,0 C 82 % 1002,5 hPa 0,0 mm 0,0 km/h (0 Bft) SO 135 10 min 2 UV-I 359 W/m 3,2 km/h (1 Bft)
06.06.2011 08:40 20,3 C 81 % 1002,4 hPa 0,0 mm 0,0 km/h (0 Bft) SO 135 10 min 2 UV-I 461 W/m 4,8 km/h (1 Bft)
06.06.2011 08:50 20,7 C 79 % 1002,7 hPa 0,0 mm 0,0 km/h (0 Bft) SO 135 10 min 2 UV-I 388 W/m 4,8 km/h (1 Bft)
06.06.2011 09:00 20,6 C 79 % 1002,7 hPa 0,0 mm 1,6 km/h (1 Bft) S-SO 157 0 min 2 UV-I 204 W/m 6,4 km/h (2 Bft)
06.06.2011 09:10 20,4 C 80 % 1002,9 hPa 0,0 mm 1,6 km/h (1 Bft) S-SO 157 0 min 2 UV-I 253 W/m 8,0 km/h (2 Bft)
06.06.2011 09:20 20,6 C 79 % 1003,0 hPa 0,0 mm 1,6 km/h (1 Bft) S 180 0 min 2 UV-I 279 W/m 6,4 km/h (2 Bft)
06.06.2011 09:30 20,8 C 77 % 1002,8 hPa 0,0 mm 3,2 km/h (1 Bft) S-SW 202 0 min 2 UV-I 281 W/m 8,0 km/h (2 Bft)
06.06.2011 09:40 20,8 C 77 % 1002,9 hPa 0,0 mm 1,6 km/h (1 Bft) S-SW 202 10 min 3 UV-I 476 W/m 6,4 km/h (2 Bft)
06.06.2011 09:50 21,2 C 77 % 1002,8 hPa 0,0 mm 1,6 km/h (1 Bft) S-SW 202 10 min 3 UV-I 524 W/m 4,8 km/h (1 Bft)
06.06.2011 10:00 21,4 C 76 % 1002,7 hPa 0,0 mm 0,0 km/h (0 Bft) S-SW 202 10 min 4 UV-I 601 W/m 6,4 km/h (2 Bft)
06.06.2011 10:10 21,9 C 76 % 1002,6 hPa 0,0 mm 1,6 km/h (1 Bft) S-SW 202 10 min 4 UV-I 701 W/m 4,8 km/h (1 Bft)
06.06.2011 10:20 22,1 C 74 % 1002,5 hPa 0,0 mm 0,0 km/h (0 Bft) S-SW 202 10 min 4 UV-I 729 W/m 4,8 km/h (1 Bft)
06.06.2011 10:30 22,2 C 76 % 1002,5 hPa 0,0 mm 0,0 km/h (0 Bft) S-SW 202 0 min 3 UV-I 352 W/m 3,2 km/h (1 Bft)
06.06.2011 10:40 22,3 C 75 % 1002,6 hPa 0,0 mm 0,0 km/h (0 Bft) S-SW 202 10 min 4 UV-I 473 W/m 4,8 km/h (1 Bft)
06.06.2011 10:50 23,0 C 72 % 1002,7 hPa 0,0 mm 1,6 km/h (1 Bft) S-SW 202 10 min 5 UV-I 893 W/m 8,0 km/h (2 Bft)
06.06.2011 11:00 23,6 C 71 % 1002,6 hPa 0,0 mm 3,2 km/h (1 Bft) SW 225 10 min 5 UV-I 844 W/m 9,7 km/h (2 Bft)
06.06.2011 11:10 23,3 C 68 % 1002,7 hPa 0,0 mm 3,2 km/h (1 Bft) SW 225 10 min 6 UV-I 835 W/m 11,3 km/h (2 Bft)
06.06.2011 11:20 23,5 C 68 % 1002,6 hPa 0,0 mm 3,2 km/h (1 Bft) W-SW 247 10 min 6 UV-I 791 W/m 11,3 km/h (2 Bft)
06.06.2011 11:30 24,1 C 65 % 1002,5 hPa 0,0 mm 4,8 km/h (1 Bft) W-SW 247 10 min 6 UV-I 812 W/m 14,5 km/h (3 Bft)
06.06.2011 11:40 24,5 C 65 % 1002,3 hPa 0,0 mm 3,2 km/h (1 Bft) W-SW 247 10 min 6 UV-I 879 W/m 9,7 km/h (2 Bft)
06.06.2011 11:50 24,6 C 64 % 1002,4 hPa 0,0 mm 3,2 km/h (1 Bft) W-SW 247 10 min 6 UV-I 881 W/m 11,3 km/h (2 Bft)
06.06.2011 12:00 24,8 C 64 % 1002,3 hPa 0,0 mm 3,2 km/h (1 Bft) W-SW 247 10 min 6 UV-I 791 W/m 11,3 km/h (2 Bft)
06.06.2011 12:10 25,2 C 61 % 1002,4 hPa 0,0 mm 3,2 km/h (1 Bft) W-SW 247 10 min 6 UV-I 823 W/m 12,9 km/h (3 Bft)
06.06.2011 12:20 24,7 C 64 % 1002,4 hPa 0,0 mm 1,6 km/h (1 Bft) SW 225 0 min 3 UV-I 241 W/m 11,3 km/h (2 Bft)
06.06.2011 12:30 24,1 C 66 % 1002,2 hPa 0,0 mm 1,6 km/h (1 Bft) SW 225 0 min 2 UV-I 190 W/m 8,0 km/h (2 Bft)
06.06.2011 12:40 23,8 C 66 % 1002,2 hPa 0,0 mm 3,2 km/h (1 Bft) SW 225 0 min 2 UV-I 192 W/m 9,7 km/h (2 Bft)
06.06.2011 12:50 23,7 C 67 % 1002,2 hPa 0,0 mm 1,6 km/h (1 Bft) W-SW 247 0 min 3 UV-I 262 W/m 9,7 km/h (2 Bft)
06.06.2011 13:00 23,7 C 66 % 1002,2 hPa 0,0 mm 1,6 km/h (1 Bft) W-SW 247 0 min 4 UV-I 357 W/m 8,0 km/h (2 Bft)
06.06.2011 13:10 24,3 C 63 % 1002,0 hPa 0,0 mm 3,2 km/h (1 Bft) W-SW 247 10 min 8 UV-I 1020 W/m 11,3 km/h (2 Bft)
06.06.2011 13:20 25,3 C 61 % 1002,0 hPa 0,0 mm 3,2 km/h (1 Bft) W-SW 247 10 min 7 UV-I 970 W/m 19,3 km/h (3 Bft)
06.06.2011 13:30 25,6 C 59 % 1001,9 hPa 0,0 mm 1,6 km/h (1 Bft) W 270 10 min 8 UV-I 1030 W/m 9,7 km/h (2 Bft)
06.06.2011 13:40 25,8 C 60 % 1001,8 hPa 0,0 mm 1,6 km/h (1 Bft) W 270 10 min 6 UV-I 752 W/m 9,7 km/h (2 Bft)
06.06.2011 13:50 26,1 C 60 % 1001,8 hPa 0,0 mm 1,6 km/h (1 Bft) W-SW 247 10 min 6 UV-I 589 W/m 8,0 km/h (2 Bft)
06.06.2011 14:00 26,3 C 56 % 1001,7 hPa 0,0 mm 1,6 km/h (1 Bft) W-SW 247 10 min 6 UV-I 833 W/m 8,0 km/h (2 Bft)
06.06.2011 14:10 26,6 C 56 % 1001,7 hPa 0,0 mm 1,6 km/h (1 Bft) W-SW 247 10 min 7 UV-I 1102 W/m 8,0 km/h (2 Bft)
06.06.2011 14:20 26,8 C 55 % 1001,6 hPa 0,0 mm 1,6 km/h (1 Bft) W-SW 247 10 min 7 UV-I 928 W/m 8,0 km/h (2 Bft)
06.06.2011 14:30 26,7 C 56 % 1001,6 hPa 0,0 mm 1,6 km/h (1 Bft) W-SW 247 10 min 7 UV-I 1051 W/m 9,7 km/h (2 Bft)
06.06.2011 14:40 26,9 C 56 % 1001,7 hPa 0,0 mm 1,6 km/h (1 Bft) SW 225 10 min 6 UV-I 1013 W/m 9,7 km/h (2 Bft)
06.06.2011 14:50 25,9 C 57 % 1001,6 hPa 0,0 mm 1,6 km/h (1 Bft) SW 225 0 min 3 UV-I 345 W/m 6,4 km/h (2 Bft)
06.06.2011 15:00 26,3 C 60 % 1001,4 hPa 0,0 mm 1,6 km/h (1 Bft) SW 225 10 min 6 UV-I 1002 W/m 4,8 km/h (1 Bft)
06.06.2011 15:10 27,1 C 57 % 1001,5 hPa 0,0 mm 4,8 km/h (1 Bft) NW 315 10 min 6 UV-I 990 W/m 17,7 km/h (3 Bft)
06.06.2011 15:20 27,3 C 51 % 1001,3 hPa 0,0 mm 4,8 km/h (1 Bft) W 270 10 min 6 UV-I 953 W/m 19,3 km/h (3 Bft)
06.06.2011 15:30 27,3 C 52 % 1001,2 hPa 0,0 mm 6,4 km/h (2 Bft) W 270 10 min 6 UV-I 891 W/m 19,3 km/h (3 Bft)
06.06.2011 15:40 27,5 C 54 % 1001,3 hPa 0,0 mm 3,2 km/h (1 Bft) W-SW 247 10 min 5 UV-I 807 W/m 14,5 km/h (3 Bft)
06.06.2011 15:50 27,4 C 51 % 1001,5 hPa 0,0 mm 6,4 km/h (2 Bft) W 270 10 min 5 UV-I 684 W/m 16,1 km/h (3 Bft)
06.06.2011 16:00 26,7 C 53 % 1001,6 hPa 0,0 mm 3,2 km/h (1 Bft) W 270 10 min 3 UV-I 415 W/m 17,7 km/h (3 Bft)
06.06.2011 16:10 26,4 C 53 % 1001,6 hPa 0,0 mm 1,6 km/h (1 Bft) NW 315 10 min 3 UV-I 559 W/m 9,7 km/h (2 Bft)
06.06.2011 16:20 26,8 C 52 % 1001,6 hPa 0,0 mm 1,6 km/h (1 Bft) NW 315 10 min 4 UV-I 747 W/m 6,4 km/h (2 Bft)
06.06.2011 16:30 26,6 C 51 % 1001,4 hPa 0,0 mm 1,6 km/h (1 Bft) NW 315 10 min 3 UV-I 439 W/m 9,7 km/h (2 Bft)
06.06.2011 16:40 26,3 C 51 % 1001,5 hPa 0,0 mm 3,2 km/h (1 Bft) NW 315 0 min 2 UV-I 330 W/m 8,0 km/h (2 Bft)
06.06.2011 16:50 26,2 C 50 % 1001,5 hPa 0,0 mm 1,6 km/h (1 Bft) NW 315 0 min 1 UV-I 190 W/m 9,7 km/h (2 Bft)
06.06.2011 17:00 25,9 C 51 % 1001,4 hPa 0,0 mm 0,0 km/h (0 Bft) NW 315 0 min 1 UV-I 120 W/m 3,2 km/h (1 Bft)
06.06.2011 17:10 25,8 C 53 % 1001,5 hPa 0,0 mm 0,0 km/h (0 Bft) NW 315 0 min 1 UV-I 93 W/m 1,6 km/h (1 Bft)
06.06.2011 17:20 25,6 C 56 % 1001,3 hPa 0,0 mm 0,0 km/h (0 Bft) N 0 0 min 1 UV-I 69 W/m 0,0 km/h (0 Bft)
06.06.2011 17:30 25,2 C 63 % 1001,4 hPa 0,0 mm 1,6 km/h (1 Bft) W-NW 292 0 min 0 UV-I 54 W/m 8,0 km/h (2 Bft)
06.06.2011 17:40 24,6 C 67 % 1001,8 hPa 0,0 mm 3,2 km/h (1 Bft) W-NW 292 0 min 0 UV-I 58 W/m 11,3 km/h (2 Bft)
06.06.2011 17:50 23,5 C 65 % 1001,8 hPa 0,0 mm 6,4 km/h (2 Bft) S-SO 157 0 min 0 UV-I 70 W/m 19,3 km/h (3 Bft)
06.06.2011 18:00 22,3 C 65 % 1001,8 hPa 0,0 mm 6,4 km/h (2 Bft) SO 135 0 min 1 UV-I 104 W/m 17,7 km/h (3 Bft)
06.06.2011 18:10 21,5 C 69 % 1001,6 hPa 0,0 mm 8,0 km/h (2 Bft) SO 135 0 min 1 UV-I 127 W/m 27,4 km/h (4 Bft)
06.06.2011 18:20 20,9 C 71 % 1001,8 hPa 0,0 mm 6,4 km/h (2 Bft) SO 135 0 min 1 UV-I 137 W/m 24,1 km/h (4 Bft)
06.06.2011 18:30 20,7 C 73 % 1002,0 hPa 0,0 mm 6,4 km/h (2 Bft) SO 135 0 min 1 UV-I 102 W/m 19,3 km/h (3 Bft)
06.06.2011 18:40 20,4 C 77 % 1002,0 hPa 0,0 mm 4,8 km/h (1 Bft) S-SW 202 0 min 1 UV-I 97 W/m 16,1 km/h (3 Bft)
06.06.2011 18:50 20,1 C 79 % 1002,1 hPa 0,0 mm 4,8 km/h (1 Bft) SO 135 0 min 1 UV-I 109 W/m 16,1 km/h (3 Bft)
06.06.2011 19:00 19,8 C 79 % 1002,1 hPa 0,0 mm 4,8 km/h (1 Bft) SO 135 0 min 1 UV-I 102 W/m 19,3 km/h (3 Bft)
06.06.2011 19:10 19,9 C 79 % 1002,1 hPa 0,0 mm 4,6 km/h (1 Bft) S-SO 147 0 min 0 UV-I 77 W/m 17,7 km/h (3 Bft)
06.06.2011 19:20 20,1 C 79 % 1002,2 hPa 0,0 mm 1,6 km/h (1 Bft) SW 219 0 min 0 UV-I 47 W/m 9,7 km/h (2 Bft)
06.06.2011 19:30 19,9 C 80 % 1002,0 hPa 0,0 mm 1,0 km/h (0 Bft) S-SW 212 0 min 0 UV-I 42 W/m 6,4 km/h (2 Bft)
06.06.2011 19:40 19,9 C 81 % 1002,2 hPa 0,0 mm 1,1 km/h (1 Bft) SW 229 0 min 0 UV-I 46 W/m 8,0 km/h (2 Bft)
06.06.2011 19:50 19,9 C 81 % 1002,2 hPa 0,0 mm 0,4 km/h (0 Bft) SW 229 0 min 0 UV-I 44 W/m 4,8 km/h (1 Bft)
06.06.2011 20:00 20,0 C 80 % 1002,5 hPa 0,0 mm 0,1 km/h (0 Bft) SW 229 0 min 0 UV-I 36 W/m 3,2 km/h (1 Bft)
06.06.2011 20:10 19,8 C 77 % 1002,4 hPa 0,0 mm 1,2 km/h (1 Bft) SW 231 0 min 0 UV-I 21 W/m 6,4 km/h (2 Bft)
06.06.2011 20:20 19,6 C 75 % 1002,3 hPa 0,0 mm 1,7 km/h (1 Bft) W-SW 247 0 min 0 UV-I 16 W/m 8,0 km/h (2 Bft)
06.06.2011 20:30 19,5 C 75 % 1002,1 hPa 0,0 mm 0,8 km/h (0 Bft) W-SW 246 0 min 0 UV-I 19 W/m 6,4 km/h (2 Bft)
06.06.2011 20:40 19,5 C 76 % 1002,0 hPa 0,0 mm 0,0 km/h (0 Bft) W-SW 247 0 min 0 UV-I 25 W/m 1,6 km/h (1 Bft)
06.06.2011 20:50 19,4 C 76 % 1001,9 hPa 0,0 mm 0,3 km/h (0 Bft) W-SW 245 0 min 0 UV-I 21 W/m 4,8 km/h (1 Bft)
06.06.2011 21:00 19,3 C 78 % 1001,8 hPa 0,0 mm 0,2 km/h (0 Bft) W-SW 246 0 min 0 UV-I 16 W/m 3,2 km/h (1 Bft)
06.06.2011 21:10 19,1 C 79 % 1001,8 hPa 0,0 mm 0,0 km/h (0 Bft) W-SW 245 0 min 0 UV-I 11 W/m 1,6 km/h (1 Bft)
06.06.2011 21:20 19,0 C 79 % 1001,7 hPa 0,0 mm 0,0 km/h (0 Bft) W-SW 246 0 min 0 UV-I 10 W/m 1,6 km/h (1 Bft)
06.06.2011 21:30 18,8 C 81 % 1001,6 hPa 0,0 mm 0,0 km/h (0 Bft) W-SW 246 0 min 0 UV-I 4 W/m 0,0 km/h (0 Bft)
06.06.2011 21:40 18,7 C 82 % 1002,0 hPa 0,0 mm 0,0 km/h (0 Bft) W-SW 245 0 min 0 UV-I 0 W/m 1,6 km/h (1 Bft)
06.06.2011 21:50 18,7 C 83 % 1002,2 hPa 0,0 mm 0,0 km/h (0 Bft) W-SW 246 0 min 0 UV-I 0 W/m 1,6 km/h (1 Bft)
06.06.2011 22:00 18,6 C 84 % 1002,2 hPa 0,0 mm 0,0 km/h (0 Bft) N 0 0 min 0 UV-I 0 W/m 0,0 km/h (0 Bft)
06.06.2011 22:10 18,6 C 85 % 1002,2 hPa 0,0 mm 0,0 km/h (0 Bft) W-SW 247 0 min 0 UV-I 0 W/m 1,6 km/h (1 Bft)
06.06.2011 22:20 18,5 C 85 % 1002,5 hPa 0,0 mm 0,0 km/h (0 Bft) N 0 0 min 0 UV-I 0 W/m 0,0 km/h (0 Bft)
06.06.2011 22:30 18,4 C 85 % 1002,9 hPa 0,0 mm 0,0 km/h (0 Bft) N 0 0 min 0 UV-I 0 W/m 0,0 km/h (0 Bft)
06.06.2011 22:40 18,3 C 86 % 1002,8 hPa 0,0 mm 0,0 km/h (0 Bft) N 0 0 min 0 UV-I 0 W/m 0,0 km/h (0 Bft)
06.06.2011 22:50 18,4 C 86 % 1002,9 hPa 0,0 mm 0,0 km/h (0 Bft) N 0 0 min 0 UV-I 0 W/m 0,0 km/h (0 Bft)
06.06.2011 23:00 18,3 C 87 % 1002,9 hPa 0,0 mm 0,0 km/h (0 Bft) W-SW 247 0 min 0 UV-I 0 W/m 1,6 km/h (1 Bft)
06.06.2011 23:10 18,3 C 87 % 1002,9 hPa 0,0 mm 0,0 km/h (0 Bft) N 0 0 min 0 UV-I 0 W/m 0,0 km/h (0 Bft)
06.06.2011 23:20 18,3 C 87 % 1002,8 hPa 0,0 mm 0,0 km/h (0 Bft) N 0 0 min 0 UV-I 0 W/m 0,0 km/h (0 Bft)
06.06.2011 23:30 18,3 C 87 % 1002,9 hPa 0,0 mm 0,0 km/h (0 Bft) N 0 0 min 0 UV-I 0 W/m 0,0 km/h (0 Bft)
06.06.2011 23:40 18,4 C 86 % 1002,7 hPa 0,0 mm 0,0 km/h (0 Bft) W-SW 246 0 min 0 UV-I 0 W/m 0,0 km/h (0 Bft)
06.06.2011 23:50 18,3 C 86 % 1002,6 hPa 0,0 mm 0,0 km/h (0 Bft) W-SW 246 0 min 0 UV-I 0 W/m 0,0 km/h (0 Bft)
_ Min-Zeit 05:30 16:50 15:30 - 00:00 - - - - - 00:10
Minimum _ 16,1 C 50 % 1001,2 hPa - 0,0 km/h (0 Bft) - - - - - 0,0 km/h (0 Bft)
_ Max-Zeit 15:20 03:30 00:30 02:40 18:10 - - 07:20 13:30 14:10 18:10
Maximum _ 27,8 C 93 % 1003,3 hPa 0,3 mm 8,0 km/h
SO (2 Bft)
- - 10 min 8 UV-I 1102 W/m 27,4 km/h
SO (4 Bft)
Durchschnitt _ 20,6 C 78 % 1002,3 hPa #0,3 mm 1,2 km/h (1 Bft) W-SW - #7:30 h 3 UV-I 378 W/m 5,8 km/h (2 Bft)